RH
78 74 74 71 72 69 81 74 89 65 68 52 47 51 59 62 57 59 59 58 59 60 59 58 58 56 50 48 49 51 54 59 58 55 54 59 65 73 80 85 82 87 91 93
99 76 77 80 72 72 73 73 75 72 75 52 58 74 72 66 62 65 63 62 60 57 56 58 64 59 49 52 50 49 54 53 53 58 58 58 61 64 71 81 84 89 90 90
84 84 86 87 70 63 71 76 74 88 78 83 76 68 68 69 68 67 64 60 56 57 56 62 63 55 61 59 57 58 58 56 54 54 58 56 60 64 67 74 83 90 87 88
90 87 96 53 55 53 59 74 82 85 85 77 72 70 70 67 77 62 55 55 56 58 58 63 56 61 63 61 63 65 63 62 61 61 62 60 61 64 67 69 82 83 86 87
96 97 77 58 54 58 65 83 79 84 79 67 68 82 66 62 53 54 56 56 60 64 66 65 71 70 70 73 71 68 66 65 63 63 64 63 66 67 70 76 76 79 81 85
98 96 95 63 49 46 51 77 65 70 63 69 84 90 72 64 60 56 51 61 63 65 70 78 72 74 80 69 74 73 69 68 65 65 66 66 66 67 67 73 76 75 81 86
86 87 77 67 51 50 79 83 68 62 65 74 84 80 69 70 64 59 62 63 59 71 75 72 70 75 83 77 80 72 72 70 69 69 69 65 63 62 64 68 72 82 85 86
93 92 88 48 50 70 71 70 54 62 70 69 69 66 66 63 66 70 70 65 64 74 70 70 74 85 83 82 74 75 75 74 71 66 66 62 67 65 65 68 79 85 90 92
86 77 57 46 52 43 38 43 60 65 60 64 70 70 70 73 75 72 64 61 64 66 65 74 70 77 82 74 73 75 76 76 72 63 65 67 72 73 72 70 80 89 90 93
64 53 50 47 43 35 56 58 56 57 57 66 78 80 82 81 72 65 59 60 54 63 64 72 53 52 56 66 66 72 78 78 77 70 69 70 66 70 77 76 77 86 91 94
68 55 46 36 35 40 43 55 58 63 73 76 80 79 77 70 66 61 60 55 56 57 53 54 45 43 43 48 54 65 72 72 77 66 72 74 75 73 75 73 77 79 80 87
71 44 42 42 43 48 49 47 58 78 75 71 74 76 66 62 58 61 54 52 56 51 53 49 45 45 45 45 48 53 55 65 71 71 75 77 81 80 75 83 84 81 81 85
55 47 49 46 46 44 60 70 63 68 69 74 67 62 54 54 52 51 49 53 56 53 50 50 50 49 46 45 47 54 59 62 71 67 72 80 86 88 88 77 80 81 85 86
45 48 61 62 77 70 67 66 58 55 53 54 50 47 49 52 51 53 55 51 51 53 53 53 52 52 47 45 49 55 59 68 70 68 72 82 90 86 86 89 90 90 82 88
63 83 93 95 94 74 59 54 53 52 51 50 47 51 50 52 53 51 48 48 52 54 53 56 59 54 46 48 54 59 62 65 69 69 72 78 86 89 87 87 89 97 92 92
71 73 89 86 75 56 56 55 57 55 53 53 56 53 49 53 53 52 51 49 57 54 50 52 54 51 52 56 61 64 64 69 70 70 71 78 85 85 85 90 96 96 97 96
83 73 72 76 57 57 59 54 56 58 56 58 59 56 50 50 55 56 52 49 51 54 54 56 58 57 60 60 65 67 68 70 74 76 78 84 88 91 91 96 97 97 97 96
65 44 40 56 64 64 61 58 58 58 60 59 57 52 52 60 60 56 55 53 55 57 56 57 60 63 61 64 68 68 73 75 72 79 80 89 93 95 97 96 97 97 97 98
54 46 55 63 64 59 52 51 53 49 50 53 51 49 52 56 57 58 58 61 63 67 61 60 62 66 64 67 70 74 81 79 75 80 88 96 97 97 93 96 97 97 98 98
43 46 39 46 55 47 45 45 46 48 48 50 51 55 57 55 54 57 57 61 59 58 59 62 65 68 71 74 76 82 79 78 80 83 91 92 96 95 93 97 98 98 98 98
45 44 46 52 49 46 47 46 48 49 45 45 51 53 53 52 52 54 60 64 56 58 63 67 70 73 73 75 79 84 87 86 89 95 97 93 94 92 96 98 98 98 99 99
42 43 46 48 48 46 44 45 46 46 46 50 52 56 59 62 61 62 63 68 63 65 68 72 76 76 78 77 86 90 83 92 97 95 95 95 96 97 98 98 98 99 99 99
45 46 46 48 48 47 46 48 48 48 51 55 59 61 61 60 62 70 73 63 66 69 72 75 76 75 75 79 93 96 97 96 96 96 96 97 97 98 99 99 99 98 97 97
53 52 51 47 48 51 56 52 50 51 56 58 60 62 67 70 68 65 69 68 69 72 73 74 77 76 77 93 97 97 97 97 97 98 97 95 98 98 98 97 97 97 97 96
55 55 58 63 64 63 62 61 63 69 68 69 69 71 72 70 73 66 66 68 68 72 78 78 80 82 92 98 97 97 97 97 98 97 97 97 97 97 97 96 96 96 96 96
57 55 53 55 58 59 59 60 63 63 64 66 65 65 68 71 71 70 70 71 76 79 86 88 93 98 98 97 97 97 97 96 96 97 96 96 96 96 95 95 95 95 95 95
56 57 56 56 53 54 56 58 63 68 66 67 72 68 70 75 75 74 75 83 85 89 94 95 98 97 98 97 96 96 96 96 95 95 95 95 95 95 95 95 95 95 95 94
Wind_Speed
10 10 6 13 15 20 17 19 14 15 17 22 18 15 8 4 3 1 5 6 6 7 7 7 7 6 7 8 9 7 9 7 8 10 10 9 9 8 8 8 9 9 9 9
4 10 15 20 19 21 22 19 20 22 24 19 9 4 5 5 3 4 5 6 7 6 7 8 8 7 8 9 10 10 9 11 10 9 9 10 10 10 9 9 8 8 9 10
9 2 7 9 14 16 5 6 7 9 5 2 4 5 5 3 4 5 7 7 8 8 8 7 8 7 7 7 7 8 11 12 12 11 11 12 10 10 11 10 8 8 9 9
7 3 7 7 4 7 8 3 3 3 2 3 4 5 7 3 2 7 8 9 10 7 8 7 7 9 8 12 10 11 13 12 12 12 12 13 11 10 11 10 9 9 9 10
5 5 10 12 6 3 6 4 2 3 3 5 5 4 4 4 2 6 8 8 8 6 7 6 8 9 7 8 9 10 12 13 14 14 15 14 14 13 11 10 11 11 9 10
4 5 7 2 5 3 2 4 4 3 5 4 3 5 5 6 5 8 9 7 7 8 6 7 8 8 7 9 9 10 11 12 13 14 14 14 14 14 12 9 11 10 11 9
14 10 8 2 4 1 3 2 4 5 5 5 4 6 9 6 8 7 7 7 9 8 7 8 8 7 7 10 10 11 11 13 13 13 13 14 13 12 12 13 11 11 11 10
4 8 10 2 3 3 4 6 6 6 4 7 8 9 9 11 8 8 8 9 10 8 8 8 8 6 10 11 12 9 11 12 13 13 11 12 14 13 13 12 12 11 11 9
8 7 2 3 2 4 10 13 6 3 7 8 9 9 9 9 9 8 8 9 7 7 9 9 10 7 9 13 12 11 11 12 13 15 13 12 12 13 12 11 8 9 8 8
7 6 10 17 20 16 4 7 7 9 12 8 9 8 8 8 7 7 7 7 6 7 10 11 12 11 10 11 12 12 13 13 11 13 14 12 12 11 11 10 9 9 9 8
16 18 18 20 13 11 14 7 10 9 7 7 6 8 7 7 7 7 7 7 7 7 10 12 12 13 12 12 10 12 12 13 12 10 11 13 11 11 11 13 12 11 11 9
18 21 18 22 15 9 13 19 12 7 6 6 6 8 7 8 7 7 9 9 9 11 9 11 11 14 13 12 10 11 12 10 10 11 10 9 10 12 14 20 22 23 25 19
18 17 17 19 17 16 14 7 7 7 8 8 8 7 6 7 7 12 11 10 10 12 13 12 12 14 13 12 10 12 12 12 10 13 11 11 11 11 14 11 20 22 23 22
18 15 15 12 10 12 6 10 10 8 8 8 9 7 8 8 11 10 11 12 10 11 13 12 12 14 15 12 11 12 12 18 11 11 11 11 11 13 11 12 12 12 14 15
8 3 8 9 12 17 9 7 8 9 7 7 7 9 10 12 12 13 13 12 9 10 13 9 11 15 14 13 12 13 10 10 11 11 11 13 11 11 11 12 11 11 11 8
11 12 5 6 13 13 9 9 7 10 10 11 9 12 14 12 12 13 12 13 8 13 15 12 12 14 12 13 14 11 11 17 18 12 11 12 10 11 11 11 12 10 10 8
8 8 8 10 10 8 9 10 10 12 13 12 14 13 13 15 15 13 15 14 11 11 13 14 14 14 13 13 13 10 10 10 19 12 12 12 11 12 12 11 10 10 11 9
8 11 16 14 9 10 10 11 12 12 11 15 14 12 14 13 15 17 16 15 14 14 15 14 12 13 13 12 12 11 10 11 12 11 12 12 12 12 11 11 11 10 10 9
10 13 13 14 12 9 12 14 13 13 14 14 13 14 15 15 15 16 15 14 14 14 17 11 16 16 14 15 16 10 10 13 13 12 12 16 12 11 11 11 10 10 10 7
15 13 16 16 12 13 15 15 14 12 14 14 13 12 15 16 14 14 13 13 14 12 13 13 13 12 13 14 18 9 12 13 13 13 11 11 12 11 11 14 11 10 9 7
16 17 17 16 15 16 14 14 13 14 16 14 13 15 16 17 16 14 14 11 18 12 13 17 11 9 9 12 12 10 10 12 13 12 12 11 11 11 11 10 9 8 5 3
16 16 18 18 17 17 16 15 15 15 15 15 15 14 14 15 14 14 11 12 12 19 11 9 8 14 12 21 10 10 12 12 10 10 9 10 10 10 10 8 7 3 3 5
16 17 18 18 18 18 17 16 16 16 15 15 14 14 13 11 10 10 12 11 8 11 10 9 14 21 21 12 9 10 10 11 9 9 8 7 7 7 6 1 3 5 7 7
16 16 17 17 17 15 17 18 16 15 14 14 14 13 11 10 10 8 9 16 20 17 10 11 14 20 23 8 8 8 8 7 7 6 5 7 4 3 4 5 7 7 8 10
17 17 16 15 14 13 15 15 12 12 12 11 11 11 12 9 10 10 8 9 17 14 9 14 18 20 9 6 6 6 5 5 5 4 4 4 4 5 6 7 8 8 8 8
16 13 13 17 14 13 12 12 11 10 10 10 10 8 7 6 7 9 8 11 8 11 7 7 7 7 3 4 4 4 5 4 5 5 5 5 6 7 8 8 8 9 9 9
15 21 13 12 11 11 11 11 12 11 11 10 11 9 8 6 7 10 11 6 7 6 5 6 4 4 3 3 3 4 4 5 7 5 6 7 7 8 8 8 9 9 9 9
Wind_Direction
250 270 264 263 256 258 235 240 237 262 254 266 282 302 285 287 343 44 14 357 332 318 314 309 310 312 306 311 312 303 306 300 294 300 303 303 294 280 264 245 243 237 233 231
269 253 253 264 259 253 250 255 256 259 264 279 296 336 10 348 27 353 338 321 312 307 305 307 313 306 317 315 316 323 313 310 302 296 296 300 301 298 291 272 255 239 236 234
279 235 304 289 247 237 200 216 221 228 217 302 334 339 315 336 4 332 316 309 319 315 314 308 297 294 303 300 300 309 316 317 313 307 300 302 296 297 298 289 274 248 245 237
282 349 254 240 275 211 203 155 157 128 195 265 263 267 284 213 341 328 321 314 311 305 310 307 316 320 319 325 323 321 319 316 316 315 309 307 299 292 292 292 276 270 257 242
240 211 298 298 300 124 156 196 238 221 252 266 265 288 265 188 333 289 287 286 284 289 289 299 293 288 298 305 303 309 310 314 314 313 310 308 305 301 289 284 284 275 260 257
175 239 251 210 317 357 42 230 357 235 282 294 337 311 271 242 265 273 282 268 276 284 274 280 289 298 297 300 301 301 306 307 308 308 306 305 303 300 295 277 274 280 270 250
240 252 273 271 339 44 207 295 292 248 254 265 251 230 273 283 280 279 281 297 305 290 287 290 292 290 284 301 290 290 296 298 304 304 300 298 298 299 296 289 281 273 266 260
228 250 271 8 12 18 291 298 282 266 256 268 262 276 273 281 287 285 287 289 283 285 283 282 290 285 292 290 287 284 291 294 299 307 305 303 298 296 293 287 281 279 270 262
197 227 262 16 130 270 286 268 256 280 276 259 258 259 270 279 287 284 274 275 269 272 290 291 296 284 288 290 294 292 293 292 296 306 304 300 302 304 302 293 282 279 272 260
321 273 319 317 313 309 247 243 255 249 251 253 258 265 275 281 276 272 273 282 287 297 298 290 301 298 289 292 296 292 291 291 291 302 301 306 306 302 298 297 293 283 276 262
274 287 294 282 286 291 299 260 264 260 247 254 268 278 263 272 279 282 285 290 282 279 289 284 292 294 299 296 297 295 293 295 290 297 294 301 300 297 296 292 286 289 283 267
272 285 276 284 288 282 296 291 270 250 265 266 251 262 272 282 272 271 284 282 279 284 281 278 286 291 295 295 295 296 299 297 293 300 296 299 299 297 283 284 291 293 287 268
278 286 287 286 283 288 274 275 273 267 252 255 263 245 256 263 269 281 282 278 275 279 284 286 290 291 293 295 295 293 292 296 294 298 296 299 296 294 302 298 293 296 284 279
281 291 292 303 283 301 252 262 271 260 247 242 248 265 256 261 276 272 272 273 272 273 277 274 282 286 291 293 295 289 291 291 291 293 296 293 289 294 292 296 304 302 286 264
264 267 258 276 295 289 266 254 270 282 289 285 262 251 265 267 271 278 285 285 275 272 279 275 270 275 285 293 289 288 289 289 289 292 293 292 288 287 290 292 294 292 288 264
259 241 221 254 269 270 281 293 278 281 287 281 275 289 293 276 276 278 277 287 282 290 296 291 283 283 287 288 286 286 285 284 289 293 291 291 282 285 287 285 289 289 285 265
287 290 281 266 261 267 276 276 269 273 279 280 275 277 285 287 286 278 284 287 282 278 274 281 284 287 285 280 278 279 285 285 284 292 289 283 283 284 282 282 278 278 280 263
261 288 293 274 259 267 277 272 270 271 273 274 276 280 286 279 276 287 287 291 291 285 281 285 280 278 280 278 274 278 281 283 290 284 283 279 279 280 280 282 280 274 274 263
270 287 288 281 267 277 282 279 279 284 284 276 276 280 280 277 280 279 282 283 281 281 282 286 284 290 289 281 282 282 280 287 287 282 277 280 279 283 282 278 273 271 266 256
295 286 296 283 271 277 281 277 272 273 273 274 276 276 274 279 283 280 278 271 270 271 282 281 283 285 283 280 286 281 284 286 286 286 286 286 284 284 280 275 270 266 262 238
285 284 290 283 277 282 280 275 272 272 278 280 274 275 278 282 284 284 283 285 282 285 278 280 279 280 280 287 286 280 282 284 285 289 289 286 285 279 276 273 268 261 236 181
282 284 282 277 279 284 284 278 272 278 283 280 277 277 278 278 283 280 266 256 278 282 281 277 277 275 285 290 291 284 283 282 289 289 282 280 279 282 279 270 261 215 134 114
278 277 277 278 281 283 285 278 275 278 280 275 275 275 273 272 276 282 285 281 274 274 278 279 279 289 299 303 288 286 297 291 286 284 281 283 286 288 290 261 86 100 104 104
279 278 278 280 284 286 280 278 281 283 273 271 270 270 271 278 278 264 262 274 279 283 283 284 290 299 301 301 297 295 295 293 290 291 298 316 318 344 34 64 81 86 93 96
277 280 282 282 281 279 279 276 276 270 269 267 264 260 252 249 251 272 274 274 281 287 282 283 294 302 301 295 301 305 310 317 330 348 350 0 20 45 56 65 76 84 86 90
279 279 281 281 278 280 281 281 277 278 280 278 275 274 268 257 257 266 270 274 273 275 276 283 289 297 312 310 330 340 343 353 7 16 32 38 49 56 61 67 72 78 82 86
281 280 282 280 277 280 280 278 279 279 276 278 279 280 275 265 265 274 275 271 272 279 276 283 296 334 328 3 11 16 15 8 48 45 42 49 53 58 64 70 75 79 82 85